Location: Oberstdorf
(47.4188°N, 10.2969°E)
Time: 00:51:50
(UTC+01:00)

Amateur Radio Satellites - All Passes

Search period start: 24 November 2017 00:21
Search period end: 25 November 2017 00:21
Location: Oberstdorf, 47.4188°N, 10.2969°E

Satellite Date Start Highest point End Downlink Frequencies (MHz)
Time Altitude Azimuth
BUGSAT 1 24 Nov 00:31:50 00:34:37 18° 92° (E) 00:37:22 437.445
50 SAT 24 Nov 00:36:45 00:39:48 41° 72° (ENE) 00:42:54 437.505
DX 1 24 Nov 00:39:11 00:43:22 47° 70° (ENE) 00:47:36 434.975-435.025
SPROUT 24 Nov 00:39:17 00:43:02 29° 265° (W) 00:46:49 437.525
SO-50 24 Nov 00:39:35 00:41:14 12° 342° (NNW) 00:42:55 436.795
QB50P2 24 Nov 00:39:42 00:43:54 68° 286° (WNW) 00:48:03 145.880/145.840
nSIGHT-1 24 Nov 00:56:42 00:59:54 64° 20° (NNE) 01:03:05 .
Oscar 19 24 Nov 01:11:11 01:15:38 28° 94° (E) 01:20:04 437.125/150
UKube-1 24 Nov 01:15:12 01:19:30 70° 73° (ENE) 01:23:50 .
RS-15 24 Nov 01:20:25 01:31:57 46° 30° (NNE) 01:42:53 29.354- 29.394
DUCHIFAT 1 24 Nov 01:25:06 01:28:51 33° 292° (WNW) 01:32:35 145.980
PCSat 24 Nov 01:25:31 01:30:32 37° 315° (NW) 01:35:36 145.827
MOZHAYETS 4 24 Nov 01:36:11 01:39:51 24° 64° (ENE) 01:43:31
AO-91 24 Nov 01:36:24 01:40:48 44° 97° (E) 01:44:43 145.960
EO-79 24 Nov 01:36:25 01:39:38 21° 296° (WNW) 01:42:49 145.935-145.965
NANOSAT C BR1 24 Nov 01:37:40 01:40:58 23° 296° (WNW) 01:44:15 145.865
BEESAT 24 Nov 01:38:47 01:42:28 23° 61° (ENE) 01:46:09 436.000
VELOX 1 24 Nov 01:41:51 01:43:41 12° 272° (W) 01:45:32 145.980
ISS 24 Nov 01:49:49 01:53:05 70° 208° (SSW) 01:56:19 437.550
ITUPSAT 1 24 Nov 01:50:00 01:54:01 27° 64° (ENE) 01:58:02 437.325
POLYITAN 1 24 Nov 01:53:06 01:55:36 16° 299° (WNW) 01:58:06 437.675
BEESAT 3 24 Nov 01:57:26 02:00:59 31° 117° (ESE) 02:04:33 437.485
CUBESAT XI-V 24 Nov 01:57:54 01:59:14 11° 55° (NE) 02:00:34 437.345
Gurwin Techsat 1B 24 Nov 01:58:21 02:03:35 53° 100° (E) 02:08:46 435.225
BUGSAT 1 24 Nov 02:06:20 02:10:11 44° 290° (WNW) 02:13:59 437.445
50 SAT 24 Nov 02:10:40 02:12:06 12° 269° (W) 02:13:32 437.505
DX 1 24 Nov 02:16:35 02:19:48 20° 268° (W) 02:23:02 434.975-435.025
nSIGHT-1 24 Nov 02:33:11 02:35:57 27° 218° (SW) 02:38:42 .
Oscar 19 24 Nov 02:50:14 02:55:06 43° 292° (WNW) 02:59:58 437.125/150
UKube-1 24 Nov 02:53:55 02:56:00 13° 271° (W) 02:58:05 .
M-CUBED/EXP-1 PRIME 24 Nov 02:57:40 03:01:59 39° 103° (ESE) 03:06:20 437.505
KKS-1 24 Nov 03:08:54 03:11:13 14° 57° (ENE) 03:13:32 437.445
ITAMSAT 1 24 Nov 03:10:08 03:14:09 22° 92° (E) 03:18:09 435.822/435.867
MOZHAYETS 4 24 Nov 03:12:27 03:16:47 42° 262° (W) 03:21:08
PCSat 24 Nov 03:13:09 03:15:33 13° 339° (NNW) 03:17:58 145.827
AO-91 24 Nov 03:13:23 03:16:55 22° 299° (WNW) 03:20:11 145.960
AO-7 24 Nov 03:13:28 03:21:09 39° 97° (E) 03:28:48 .
BEESAT 24 Nov 03:15:16 03:19:55 51° 260° (W) 03:24:35 436.000
BEESAT 2 24 Nov 03:15:19 03:19:16 58° 123° (ESE) 03:23:16 435.950
ITUPSAT 1 24 Nov 03:27:10 03:31:39 41° 261° (W) 03:36:12 437.325
ISS 24 Nov 03:27:32 03:29:03 13° 226° (SW) 03:30:34 437.550
CUBESAT XI-V 24 Nov 03:31:12 03:35:47 76° 74° (ENE) 03:40:25 437.345
RS-15 24 Nov 03:33:37 03:45:33 79° 238° (WSW) 03:56:48 29.354- 29.394
BEESAT 3 24 Nov 03:34:48 03:38:29 34° 317° (NW) 03:42:10 437.485
Gurwin Techsat 1B 24 Nov 03:38:53 03:43:13 26° 299° (WNW) 03:47:31 435.225
SO-50 24 Nov 04:02:37 04:06:06 20° 32° (NNE) 04:09:36 436.795
YUBILEINY 24 Nov 04:09:56 04:16:43 26° 79° (ENE) 04:23:32 435.215
AO-85 24 Nov 04:11:10 04:15:04 77° 125° (SE) 04:19:11 145.980
DOVE 4 24 Nov 04:15:59 04:19:35 19° 88° (E) 04:23:03 437.250
M-CUBED/EXP-1 PRIME 24 Nov 04:32:16 04:36:12 29° 300° (WNW) 04:40:12 437.505
KKS-1 24 Nov 04:42:39 04:47:08 82° 255° (WSW) 04:51:40 437.445
ITAMSAT 1 24 Nov 04:48:52 04:53:58 56° 291° (WNW) 04:59:01 435.822/435.867
BEESAT 2 24 Nov 04:54:03 04:57:18 23° 323° (NW) 05:00:35 435.950
STARS 24 Nov 04:58:27 05:02:50 62° 71° (ENE) 05:07:13 437.465
AO-7 24 Nov 05:06:06 05:14:13 57° 298° (WNW) 05:22:19 .
CUBESAT XI-V 24 Nov 05:11:28 05:13:43 13° 272° (W) 05:15:58 437.345
XW-2B 24 Nov 05:23:09 05:25:03 13° 90° (E) 05:26:56 145.730 - 145.750
FO-29 24 Nov 05:34:41 05:37:50 13° 43° (NE) 05:41:04 435.910
STRAND 1 24 Nov 05:38:12 05:42:12 24° 61° (ENE) 05:46:13 437.568
SO-50 24 Nov 05:42:31 05:47:11 89° 55° (NE) 05:51:54 436.795
RS-15 24 Nov 05:47:52 05:55:54 22° 262° (W) 06:03:42 29.354- 29.394
XW-2C 24 Nov 05:47:54 05:51:07 25° 95° (E) 05:54:18 145.795 - 145.815
DOVE 4 24 Nov 05:52:36 05:57:45 64° 288° (WNW) 06:02:37 437.250
AO-85 24 Nov 05:53:04 05:56:00 19° 327° (NNW) 05:59:03 145.980
LilacSat-2 24 Nov 05:53:30 05:56:58 31° 96° (E) 06:00:25 437.200
HO-68 24 Nov 05:54:22 05:58:25 16° 86° (E) 06:02:26 435.675
XW-2F 24 Nov 05:55:39 05:58:59 28° 96° (E) 06:02:18 145.980 - 146.000
YUBILEINY 24 Nov 06:03:47 06:12:34 78° 281° (W) 06:21:27 435.215
KAITUO 1B 24 Nov 06:18:04 06:21:38 39° 98° (E) 06:25:12 145.475/437.950
ITAMSAT 1 24 Nov 06:32:11 06:32:20 10° 310° (NW) 06:32:29 435.822/435.867
STARS 24 Nov 06:36:55 06:39:34 16° 270° (W) 06:42:15 437.465
XW-2D 24 Nov 06:40:47 06:44:37 78° 285° (WNW) 06:48:26 145.860 - 145.880
CUTE-I 24 Nov 06:42:06 06:47:29 68° 102° (ESE) 06:52:49 437.470
PCSat 24 Nov 06:43:35 06:47:23 19° 32° (NNE) 06:51:10 145.827
CUBEBUG 2 24 Nov 06:50:45 06:53:43 19° 91° (E) 06:56:39 437.445
XW-2B 24 Nov 06:55:48 06:59:33 55° 287° (WNW) 07:03:17 145.730 - 145.750
NUDT-PHONESAT 24 Nov 06:57:15 07:00:58 74° 285° (WNW) 07:04:40 437.300
CUTE 1.7 + AOD 2 24 Nov 06:58:14 07:02:15 38° 97° (E) 07:06:14 437.475
AO-7 24 Nov 07:00:21 07:05:17 18° 321° (NW) 07:10:15 .
FO-29 24 Nov 07:14:23 07:21:00 49° 65° (ENE) 07:28:17 435.910
STRAND 1 24 Nov 07:15:58 07:21:02 56° 259° (W) 07:26:07 437.568
AAUSAT CUBESAT 2 24 Nov 07:20:40 07:23:40 19° 91° (E) 07:26:40 437.432
XW-2C 24 Nov 07:21:58 07:25:16 28° 292° (WNW) 07:28:33 145.795 - 145.815
SEEDS 24 Nov 07:22:38 07:26:42 42° 98° (E) 07:30:44 437.485
SO-50 24 Nov 07:24:41 07:27:00 14° 250° (WSW) 07:29:18 436.795
ZACube-1 24 Nov 07:25:03 07:27:07 13° 89° (E) 07:29:12 437.345
LilacSat-2 24 Nov 07:28:01 07:31:07 24° 293° (WNW) 07:34:13 437.200
XW-2F 24 Nov 07:29:51 07:33:00 25° 293° (WNW) 07:36:09 145.980 - 146.000
XW-2A 24 Nov 07:31:53 07:34:38 23° 95° (E) 07:37:22 145.665 - 145.685
DOVE 4 24 Nov 07:32:54 07:34:20 11° 307° (NW) 07:35:45 437.250
HO-68 24 Nov 07:40:04 07:47:18 78° 105° (ESE) 07:54:29 435.675
UWE-3 24 Nov 07:40:27 07:44:16 34° 96° (E) 07:48:05 435.000/436.395/437.385
KAITUO 1B 24 Nov 07:52:41 07:55:21 19° 295° (WNW) 07:58:02 145.475/437.950
YUBILEINY 24 Nov 08:04:56 08:11:03 20° 305° (NW) 08:17:14 435.215
AO-73 24 Nov 08:12:45 08:16:36 36° 97° (E) 08:20:29 145.935
CUTE-I 24 Nov 08:23:06 08:27:01 21° 302° (WNW) 08:30:56 437.470
Oscar 11 24 Nov 08:25:36 08:29:36 35° 97° (E) 08:33:33 .
PCSat 24 Nov 08:26:19 08:31:47 71° 54° (NE) 08:37:11 145.827
CUBEBUG 2 24 Nov 08:26:36 08:30:35 44° 289° (WNW) 08:34:30 437.445
BEESAT 3 24 Nov 08:34:19 08:36:07 13° 27° (NNE) 08:37:54 437.485
CUTE 1.7 + AOD 2 24 Nov 08:34:26 08:37:53 24° 295° (WNW) 08:41:20 437.475
UNISAT 6 24 Nov 08:35:15 08:39:26 38° 69° (ENE) 08:43:33 437.425
PRISM 24 Nov 08:38:15 08:40:47 16° 61° (ENE) 08:43:22 437.425
TIGRISAT 24 Nov 08:38:43 08:42:54 38° 69° (ENE) 08:47:00 435.000
AAUSAT CUBESAT 2 24 Nov 08:55:19 08:59:21 45° 289° (WNW) 09:03:20 437.432
DELFI C3 24 Nov 08:57:15 08:59:48 16° 91° (E) 09:02:21 145.870
SEEDS 24 Nov 08:58:52 09:02:07 22° 296° (WNW) 09:05:22 437.485
ZACube-1 24 Nov 08:59:43 09:03:50 63° 286° (WNW) 09:07:57 437.345
FO-29 24 Nov 08:59:44 09:06:08 40° 266° (W) 09:13:13 435.910
XW-2A 24 Nov 09:04:31 09:07:17 24° 292° (WNW) 09:10:02 145.665 - 145.685
EO-88 24 Nov 09:15:10 09:16:26 11° 89° (E) 09:17:42 145.990 - 145.960
UWE-3 24 Nov 09:17:14 09:20:35 24° 295° (WNW) 09:23:56 435.000/436.395/437.385
AO-85 24 Nov 09:19:53 09:20:44 10° 18° (NNE) 09:21:36 145.980
Max Valier Satellite 24 Nov 09:23:01 09:25:47 20° 93° (E) 09:28:33 145.860
HO-68 24 Nov 09:28:39 09:34:22 27° 306° (NW) 09:40:04 435.675
AO-73 24 Nov 09:49:22 09:52:41 23° 295° (WNW) 09:56:00 145.935
BEESAT 2 24 Nov 09:52:50 09:55:41 18° 34° (NNE) 09:58:32 435.950
QB50P2 24 Nov 10:01:06 10:03:43 16° 61° (ENE) 10:06:19 145.880/145.840
Oscar 11 24 Nov 10:01:59 10:05:36 26° 294° (WNW) 10:09:13 .
BEESAT 3 24 Nov 10:10:37 10:14:31 54° 48° (NE) 10:18:22 437.485
PCSat 24 Nov 10:10:43 10:14:37 20° 253° (WSW) 10:18:30 145.827
PRISM 24 Nov 10:11:32 10:15:36 60° 258° (WSW) 10:19:45 437.425
UNISAT 6 24 Nov 10:12:31 10:16:15 25° 266° (W) 10:19:55 437.425
TIGRISAT 24 Nov 10:15:56 10:19:41 25° 266° (W) 10:23:21 435.000
DELFI C3 24 Nov 10:30:57 10:34:49 48° 288° (WNW) 10:38:39 145.870
AIST 2D 24 Nov 10:33:35 10:37:01 74° 75° (ENE) 10:40:31 435.315
DUCHIFAT 1 24 Nov 10:44:10 10:47:48 29° 67° (ENE) 10:51:26 145.980
EO-88 24 Nov 10:46:50 10:50:27 58° 286° (WNW) 10:54:02 145.990 - 145.960
FALCONSAT 3 24 Nov 10:50:19 10:52:03 13° 181° (S) 10:53:48 435.103
EO-79 24 Nov 10:55:07 10:59:11 47° 71° (ENE) 11:03:15 145.935-145.965
NANOSAT C BR1 24 Nov 10:56:13 11:00:11 43° 70° (ENE) 11:04:12 145.865
Max Valier Satellite 24 Nov 10:56:22 10:59:41 32° 290° (WNW) 11:02:59 145.860
AO-85 24 Nov 10:58:30 11:02:32 30° 40° (NE) 11:06:50 145.980
LO-87 24 Nov 11:01:04 11:04:04 25° 95° (E) 11:07:02 145.935 - 145.965
AO-91 24 Nov 11:03:09 11:04:32 11° 53° (NE) 11:05:54 145.960
POLYITAN 1 24 Nov 11:11:12 11:15:25 69° 73° (ENE) 11:19:38 437.675
BUGSAT 1 24 Nov 11:24:17 11:27:26 21° 64° (ENE) 11:30:33 437.445
BEESAT 2 24 Nov 11:29:53 11:33:57 84° 236° (SW) 11:37:57 435.950
QB50P2 24 Nov 11:34:51 11:39:03 61° 259° (WSW) 11:43:16 145.880/145.840
ESTCUBE 1 24 Nov 11:43:00 11:47:30 56° 100° (E) 11:51:57 437.505/2401.250
O/OREOS (USA 219) 24 Nov 11:43:14 11:43:36 10° 96° (E) 11:43:57 437.305
Gurwin Techsat 1B 24 Nov 11:44:56 11:48:38 19° 58° (ENE) 11:52:20 435.225
BEESAT 3 24 Nov 11:48:59 11:51:41 18° 247° (WSW) 11:54:20 437.485
VELOX 1 24 Nov 11:50:59 11:52:36 12° 88° (E) 11:54:15 145.980
DUCHIFAT 1 24 Nov 12:19:42 12:23:24 30° 264° (W) 12:27:07 145.980
SPROUT 24 Nov 12:20:57 12:24:52 35° 97° (E) 12:28:46 437.525
AO-7 24 Nov 12:26:54 12:32:30 21° 43° (NE) 12:38:06 .
Oscar 19 24 Nov 12:30:59 12:35:58 57° 70° (ENE) 12:40:59 437.125/150
EO-79 24 Nov 12:32:11 12:35:11 19° 268° (W) 12:38:11 145.935-145.965
NANOSAT C BR1 24 Nov 12:32:57 12:36:06 20° 268° (W) 12:39:14 145.865
LO-87 24 Nov 12:34:30 12:37:23 24° 293° (WNW) 12:40:16 145.935 - 145.965
AO-91 24 Nov 12:34:39 12:39:57 58° 72° (ENE) 12:45:10 145.960
AO-85 24 Nov 12:38:38 12:43:10 52° 238° (WSW) 12:48:02 145.980
POLYITAN 1 24 Nov 12:49:43 12:51:40 13° 271° (W) 12:53:35 437.675
BUGSAT 1 24 Nov 12:58:33 13:02:32 42° 261° (W) 13:06:30 437.445
O/OREOS (USA 219) 24 Nov 13:17:35 13:22:12 83° 112° (ESE) 13:26:49 437.305
ESTCUBE 1 24 Nov 13:20:41 13:23:54 19° 299° (WNW) 13:27:06 437.505/2401.250
Gurwin Techsat 1B 24 Nov 13:22:42 13:28:00 74° 257° (WSW) 13:33:21 435.225
50 SAT 24 Nov 13:22:53 13:25:26 21° 95° (E) 13:27:58 437.505
VELOX 1 24 Nov 13:25:09 13:29:38 82° 286° (WNW) 13:34:05 145.980
M-CUBED/EXP-1 PRIME 24 Nov 13:46:12 13:49:52 74° 69° (ENE) 13:53:55 437.505
SPROUT 24 Nov 13:57:08 14:00:37 25° 295° (WNW) 14:04:06 437.525
DX 1 24 Nov 13:59:52 14:04:12 56° 101° (E) 14:08:29 434.975-435.025
Oscar 19 24 Nov 14:11:48 14:15:39 21° 268° (W) 14:19:31 437.125/150
AO-91 24 Nov 14:12:24 14:16:39 23° 269° (W) 14:20:54 145.960
YUBILEINY 24 Nov 14:14:40 14:19:52 16° 51° (NE) 14:25:02 435.215
AO-7 24 Nov 14:15:40 14:23:51 69° 65° (ENE) 14:32:06 .
ITAMSAT 1 24 Nov 14:30:48 14:35:48 47° 68° (ENE) 14:40:49 435.822/435.867
UKube-1 24 Nov 14:34:40 14:39:02 81° 105° (ESE) 14:43:21 .
NO-84 24 Nov 14:47:45 14:51:21 62° 142° (SE) 14:55:18 435.350 FM
50 SAT 24 Nov 14:54:51 14:57:27 23° 293° (WNW) 15:00:02 437.505
O/OREOS (USA 219) 24 Nov 14:59:19 15:02:14 16° 314° (NW) 15:05:10 437.305
VELOX 1 24 Nov 15:03:50 15:05:19 12° 304° (NW) 15:06:48 145.980
MOZHAYETS 4 24 Nov 15:03:53 15:08:04 34° 96° (E) 15:12:14
Gurwin Techsat 1B 24 Nov 15:07:50 15:08:52 11° 275° (W) 15:09:55 435.225
BEESAT 24 Nov 15:12:04 15:16:18 31° 96° (E) 15:20:29 436.000
DOVE 4 24 Nov 15:23:34 15:27:54 28° 63° (ENE) 15:32:20 437.250
ITUPSAT 1 24 Nov 15:24:00 15:28:28 38° 98° (E) 15:32:53 437.325
M-CUBED/EXP-1 PRIME 24 Nov 15:24:12 15:24:54 10° 268° (W) 15:25:36 437.505
CUBESAT XI-V 24 Nov 15:25:34 15:28:19 15° 89° (E) 15:31:05 437.345
DX 1 24 Nov 15:36:57 15:39:59 19° 299° (WNW) 15:43:00 434.975-435.025
RS-15 24 Nov 15:58:28 16:01:32 11° 90° (E) 16:04:36 29.354- 29.394
XW-2B 24 Nov 16:08:30 16:09:38 11° 60° (ENE) 16:10:46 145.730 - 145.750
YUBILEINY 24 Nov 16:09:59 16:18:48 64° 76° (ENE) 16:27:32 435.215
AO-7 24 Nov 16:10:08 16:17:14 31° 266° (W) 16:24:24 .
ITAMSAT 1 24 Nov 16:11:06 16:15:28 26° 266° (W) 16:19:52 435.822/435.867
UKube-1 24 Nov 16:12:19 16:14:26 13° 302° (WNW) 16:16:31 .
NO-84 24 Nov 16:25:19 16:28:55 37° 343° (NNW) 16:32:45 435.350 FM
HO-68 24 Nov 16:27:06 16:31:58 20° 49° (NE) 16:36:51 435.675
CUTE-I 24 Nov 16:28:38 16:32:55 25° 60° (ENE) 16:37:13 437.470
KKS-1 24 Nov 16:31:34 16:34:10 15° 90° (E) 16:36:44 437.445
XW-2C 24 Nov 16:32:27 16:35:13 20° 65° (ENE) 16:38:00 145.795 - 145.815
LilacSat-2 24 Nov 16:38:32 16:41:37 24° 67° (ENE) 16:44:43 437.200
XW-2F 24 Nov 16:39:37 16:42:32 22° 66° (ENE) 16:45:27 145.980 - 146.000
MOZHAYETS 4 24 Nov 16:41:10 16:45:08 30° 294° (WNW) 16:49:05
BEESAT 24 Nov 16:49:46 16:54:05 35° 294° (WNW) 16:58:22 436.000
DOVE 4 24 Nov 17:00:20 17:05:17 48° 263° (W) 17:10:25 437.250
KAITUO 1B 24 Nov 17:00:55 17:04:07 29° 68° (ENE) 17:07:21 145.475/437.950
CUBESAT XI-V 24 Nov 17:01:29 17:06:10 69° 287° (WNW) 17:10:51 437.345
ITUPSAT 1 24 Nov 17:02:05 17:06:09 28° 296° (WNW) 17:10:12 437.325
XW-2D 24 Nov 17:24:31 17:28:15 78° 74° (ENE) 17:32:01 145.860 - 145.880
NUDT-PHONESAT 24 Nov 17:38:43 17:42:21 76° 77° (ENE) 17:46:01 437.300
XW-2B 24 Nov 17:39:30 17:43:13 74° 257° (WSW) 17:47:00 145.730 - 145.750
CUBEBUG 2 24 Nov 17:51:25 17:55:06 25° 66° (ENE) 17:58:42 437.445
CUTE 1.7 + AOD 2 24 Nov 17:53:40 17:57:35 39° 70° (ENE) 18:01:33 437.475
RS-15 24 Nov 17:59:13 18:10:52 52° 113° (ESE) 18:22:27 29.354- 29.394
NO-84 24 Nov 18:03:32 18:07:03 28° 4° (N) 18:10:43 435.350 FM
XW-2C 24 Nov 18:05:44 18:09:10 35° 263° (W) 18:12:40 145.795 - 145.815
KKS-1 24 Nov 18:06:43 18:11:09 64° 288° (WNW) 18:15:33 437.445
XW-2A 24 Nov 18:06:48 18:08:34 14° 64° (ENE) 18:10:21 145.665 - 145.685
CUTE-I 24 Nov 18:07:20 18:12:36 56° 259° (W) 18:17:55 437.470
YUBILEINY 24 Nov 18:07:30 18:15:02 33° 278° (W) 18:22:33 435.215
HO-68 24 Nov 18:11:27 18:18:39 78° 70° (ENE) 18:25:52 435.675
LilacSat-2 24 Nov 18:12:31 18:15:48 28° 265° (W) 18:19:06 437.200
XW-2F 24 Nov 18:13:09 18:16:28 31° 264° (W) 18:19:51 145.980 - 146.000
AAUSAT CUBESAT 2 24 Nov 18:13:50 18:16:48 19° 63° (ENE) 18:19:48 437.432
SEEDS 24 Nov 18:17:00 18:20:56 43° 70° (ENE) 18:24:56 437.485
STARS 24 Nov 18:20:34 18:24:59 76° 104° (ESE) 18:29:20 437.465
ZACube-1 24 Nov 18:23:44 18:26:29 17° 62° (ENE) 18:29:14 437.345
KAITUO 1B 24 Nov 18:35:09 18:38:06 23° 266° (W) 18:41:06 145.475/437.950
UWE-3 24 Nov 18:40:03 18:44:11 42° 71° (ENE) 18:48:15 435.000/436.395/437.385
CUBESAT XI-V 24 Nov 18:41:47 18:42:39 10° 305° (NW) 18:43:32 437.345
AO-73 24 Nov 19:10:58 19:14:58 42° 70° (ENE) 19:18:55 145.935
nSIGHT-1 24 Nov 19:13:06 19:15:01 15° 136° (SE) 19:16:56 .
STRAND 1 24 Nov 19:23:09 19:27:57 39° 97° (E) 19:32:42 437.568
Oscar 11 24 Nov 19:23:12 19:27:11 39° 69° (ENE) 19:31:12 .
CUBEBUG 2 24 Nov 19:27:20 19:31:33 38° 263° (W) 19:35:41 437.445
CUTE 1.7 + AOD 2 24 Nov 19:30:18 19:33:33 22° 267° (W) 19:36:52 437.475
XW-2A 24 Nov 19:37:46 19:40:55 41° 261° (W) 19:44:07 145.665 - 145.685
NO-84 24 Nov 19:41:02 19:45:05 49° 24° (NNE) 19:49:14 435.350 FM
DELFI C3 24 Nov 19:45:47 19:48:09 15° 62° (ENE) 19:50:33 145.870
AAUSAT CUBESAT 2 24 Nov 19:47:58 19:51:56 46° 262° (W) 19:55:58 437.432
SEEDS 24 Nov 19:53:45 19:56:49 20° 268° (W) 19:59:55 437.485
ZACube-1 24 Nov 19:58:11 20:02:24 55° 260° (W) 20:06:33 437.345
STARS 24 Nov 19:58:23 20:00:44 14° 302° (WNW) 20:03:05 437.465
HO-68 24 Nov 20:01:38 20:07:07 23° 270° (W) 20:12:38 435.675
SO-50 24 Nov 20:02:29 20:04:18 12° 109° (ESE) 20:06:06 436.795
FO-29 24 Nov 20:05:21 20:12:26 36° 92° (E) 20:19:05 435.910
Max Valier Satellite 24 Nov 20:05:21 20:07:34 15° 63° (ENE) 20:09:46 145.860
ISS 24 Nov 20:07:46 20:10:46 34° 144° (SE) 20:13:47 437.550
RS-15 24 Nov 20:11:04 20:23:18 63° 318° (NW) 20:35:22 29.354- 29.394
UWE-3 24 Nov 20:17:28 20:20:49 21° 267° (W) 20:24:07 435.000/436.395/437.385
nSIGHT-1 24 Nov 20:47:36 20:50:49 82° 154° (SSE) 20:54:02 .
AO-73 24 Nov 20:48:12 20:51:23 20° 268° (W) 20:54:32 145.935
Oscar 11 24 Nov 21:00:04 21:03:27 23° 267° (W) 21:06:53 .
STRAND 1 24 Nov 21:02:32 21:07:02 32° 296° (WNW) 21:11:29 437.568
ESTCUBE 1 24 Nov 21:12:45 21:13:44 11° 55° (NE) 21:14:42 437.505/2401.250
NO-84 24 Nov 21:18:26 21:22:27 42° 223° (SW) 21:26:29 435.350 FM
DELFI C3 24 Nov 21:18:34 21:22:28 56° 260° (W) 21:26:26 145.870
EO-88 24 Nov 21:26:49 21:30:26 88° 263° (W) 21:34:05 145.990 - 145.960
Max Valier Satellite 24 Nov 21:37:32 21:41:02 45° 261° (W) 21:44:34 145.860
SO-50 24 Nov 21:39:33 21:44:01 89° 127° (SE) 21:48:34 436.795
LO-87 24 Nov 21:40:15 21:42:47 18° 65° (ENE) 21:45:20 145.935 - 145.965
ISS 24 Nov 21:43:55 21:47:10 56° 343° (NNW) 21:50:23 437.550
O/OREOS (USA 219) 24 Nov 21:45:27 21:49:40 35° 56° (NE) 21:53:50 437.305
FO-29 24 Nov 21:50:05 21:57:46 58° 293° (WNW) 22:04:59 435.910
PRISM 24 Nov 21:50:37 21:53:01 15° 90° (E) 21:55:24 437.425
UNISAT 6 24 Nov 21:59:47 22:03:59 53° 100° (E) 22:08:08 437.425
TIGRISAT 24 Nov 22:03:04 22:07:15 52° 100° (E) 22:11:23 435.000
nSIGHT-1 24 Nov 22:24:12 22:27:15 39° 353° (N) 22:30:18 .
RS-15 24 Nov 22:27:46 22:38:45 35° 349° (N) 22:49:27 29.354- 29.394
ESTCUBE 1 24 Nov 22:45:15 22:49:43 75° 74° (ENE) 22:54:14 437.505/2401.250
VELOX 1 24 Nov 22:50:35 22:53:29 17° 60° (ENE) 22:56:24 145.980
PCSat 24 Nov 23:11:31 23:16:17 32° 111° (ESE) 23:21:04 145.827
LO-87 24 Nov 23:12:37 23:15:57 35° 262° (W) 23:19:19 145.935 - 145.965
SPROUT 24 Nov 23:16:52 23:20:53 40° 69° (ENE) 23:24:54 437.525
QB50P2 24 Nov 23:17:14 23:20:01 17° 91° (E) 23:22:47 145.880/145.840
ISS 24 Nov 23:20:55 23:24:00 37° 3° (N) 23:27:05 437.550
SO-50 24 Nov 23:21:45 23:25:06 20° 328° (NNW) 23:28:30 436.795
PRISM 24 Nov 23:24:32 23:28:39 58° 288° (WNW) 23:32:43 437.425
O/OREOS (USA 219) 24 Nov 23:25:03 23:28:59 29° 255° (WSW) 23:32:52 437.305
DX 1 24 Nov 23:26:31 23:27:00 10° 55° (NE) 23:27:28 434.975-435.025
AIST 2D 24 Nov 23:28:03 23:31:33 57° 100° (E) 23:35:02 435.315
FO-29 24 Nov 23:36:47 23:41:10 16° 314° (NW) 23:45:29 435.910
UNISAT 6 24 Nov 23:37:25 23:40:19 18° 298° (WNW) 23:43:12 437.425
TIGRISAT 24 Nov 23:40:40 23:43:34 18° 298° (WNW) 23:46:28 435.000
50 SAT 24 Nov 23:53:42 23:55:13 13° 63° (ENE) 23:56:45 437.505
UKube-1 24 Nov 23:58:31 00:00:38 13° 58° (ENE) 00:02:45 .
DUCHIFAT 1 24 Nov 23:59:47 00:03:33 32° 96° (E) 00:07:17 145.980
nSIGHT-1 25 Nov 00:00:45 00:03:53 46° 14° (NNE) 00:06:59 .
EO-79 25 Nov 00:11:50 00:15:58 55° 100° (E) 00:20:04 145.935-145.965
NANOSAT C BR1 25 Nov 00:12:26 00:16:31 50° 100° (E) 00:20:34 145.865
